Time,TemperatureF,DewpointF,PressureIn,WindDirection,WindDirectionDegrees,WindSpeedMPH,WindSpeedGustMPH,Humidity,HourlyPrecipIn,Conditions,Clouds,dailyrainin,SoftwareType,DateUTC
2013-02-08 00:00:00,47.0,-99.9,-100.00,SSW,194,2.0,-999.0,-999,-99.99,,,0.00,,2013-02-08 05:00:00,
2013-02-08 00:12:00,47.0,-99.9,-100.00,WNW,292,1.0,-999.0,-999,-99.99,,,0.00,,2013-02-08 05:12:00,
2013-02-08 00:22:00,47.0,-99.9,-100.00,WNW,292,1.0,-999.0,-999,-99.99,,,0.00,,2013-02-08 05:22:00,
2013-02-08 00:30:00,47.0,-99.9,-100.00,West,279,2.0,-999.0,-999,-99.99,,,0.00,,2013-02-08 05:30:00,
2013-02-08 00:42:00,47.0,-99.9,-100.00,SSW,194,2.0,-999.0,-999,-99.99,,,0.00,,2013-02-08 05:42:00,
2013-02-08 00:52:00,47.0,-99.9,-100.00,SSW,194,2.0,-999.0,-999,-99.99,,,0.00,,2013-02-08 05:52:00,
2013-02-08 01:11:00,47.0,-99.9,-100.00,West,279,2.0,-999.0,-999,-99.99,,,0.00,,2013-02-08 06:11:00,
2013-02-08 01:22:00,47.0,-99.9,-100.00,West,279,2.0,-999.0,-999,-99.99,,,0.00,,2013-02-08 06:22:00,
2013-02-08 01:30:00,47.0,-99.9,-100.00,ESE,122,1.0,-999.0,-999,-99.99,,,0.00,,2013-02-08 06:30:00,
2013-02-08 02:00:00,47.0,-99.9,-100.00,SSW,202,2.0,-999.0,-999,-99.99,,,0.00,,2013-02-08 07:00:00,
2013-02-08 02:12:00,47.0,-99.9,-100.00,ESE,122,1.0,-999.0,-999,-99.99,,,0.00,,2013-02-08 07:12:00,
2013-02-08 02:22:00,47.0,-99.9,-100.00,ESE,122,1.0,-999.0,-999,-99.99,,,0.00,,2013-02-08 07:22:00,
2013-02-08 02:30:00,46.0,-99.9,-100.00,West,266,1.0,-999.0,-999,-99.99,,,0.00,,2013-02-08 07:30:00,
2013-02-08 02:42:00,47.0,-99.9,-100.00,SSW,202,2.0,-999.0,-999,-99.99,,,0.00,,2013-02-08 07:42:00,
2013-02-08 02:52:00,47.0,-99.9,-100.00,SSW,202,2.0,-999.0,-999,-99.99,,,0.00,,2013-02-08 07:52:00,
2013-02-08 03:00:00,46.0,-99.9,-100.00,SSW,208,1.0,-999.0,-999,-99.99,,,0.00,,2013-02-08 08:00:00,
2013-02-08 03:12:00,46.0,-99.9,-100.00,West,266,1.0,-999.0,-999,-99.99,,,0.00,,2013-02-08 08:12:00,
2013-02-08 03:22:00,46.0,-99.9,-100.00,West,266,1.0,-999.0,-999,-99.99,,,0.00,,2013-02-08 08:22:00,
2013-02-08 03:30:00,46.0,-99.9,-100.00,South,186,2.0,-999.0,-999,-99.99,,,-99.99,,2013-02-08 08:30:00,
2013-02-08 03:42:00,46.0,-99.9,-100.00,SSW,208,1.0,-999.0,-999,-99.99,,,0.00,,2013-02-08 08:42:00,
2013-02-08 03:52:00,46.0,-99.9,-100.00,SSW,208,1.0,-999.0,-999,-99.99,,,0.00,,2013-02-08 08:52:00,
2013-02-08 04:00:00,46.0,-99.9,-100.00,SSW,192,4.0,-999.0,-999,-99.99,,,0.00,,2013-02-08 09:00:00,
2013-02-08 04:11:00,46.0,-99.9,-100.00,South,186,2.0,-999.0,-999,-99.99,,,-99.99,,2013-02-08 09:11:00,
2013-02-08 04:22:00,46.0,-99.9,-100.00,South,186,2.0,-999.0,-999,-99.99,,,-99.99,,2013-02-08 09:22:00,
2013-02-08 04:30:00,47.0,-99.9,-100.00,SSW,211,2.0,-999.0,-999,-99.99,,,0.00,,2013-02-08 09:30:00,
2013-02-08 04:42:00,46.0,-99.9,-100.00,SSW,192,4.0,-999.0,-999,-99.99,,,0.00,,2013-02-08 09:42:00,
2013-02-08 04:52:00,46.0,-99.9,-100.00,SSW,192,4.0,-999.0,-999,-99.99,,,0.00,,2013-02-08 09:52:00,
2013-02-08 05:00:00,46.0,-99.9,-100.00,South,171,2.0,-999.0,-999,-99.99,,,0.00,,2013-02-08 10:00:00,
2013-02-08 05:12:00,47.0,-99.9,-100.00,SSW,211,2.0,-999.0,-999,-99.99,,,0.00,,2013-02-08 10:12:00,
2013-02-08 05:22:00,47.0,-99.9,-100.00,SSW,211,2.0,-999.0,-999,-99.99,,,0.00,,2013-02-08 10:22:00,
2013-02-08 05:30:00,47.0,-99.9,-100.00,South,169,2.0,-999.0,-999,-99.99,,,0.00,,2013-02-08 10:30:00,
2013-02-08 05:42:00,46.0,-99.9,-100.00,South,171,2.0,-999.0,-999,-99.99,,,0.00,,2013-02-08 10:42:00,
2013-02-08 05:52:00,46.0,-99.9,-100.00,South,171,2.0,-999.0,-999,-99.99,,,0.00,,2013-02-08 10:52:00,
2013-02-08 06:11:00,47.0,-99.9,-100.00,South,169,2.0,-999.0,-999,-99.99,,,0.00,,2013-02-08 11:11:00,
2013-02-08 06:22:00,47.0,-99.9,-100.00,South,169,2.0,-999.0,-999,-99.99,,,0.00,,2013-02-08 11:22:00,
2013-02-08 06:42:00,47.0,-99.9,-100.00,SSW,211,2.0,-999.0,-999,-99.99,,,0.00,,2013-02-08 11:42:00,
2013-02-08 06:53:00,47.0,-99.9,-100.00,SW,217,1.0,-999.0,-999,-99.99,,,0.00,,2013-02-08 11:53:00,
2013-02-08 07:02:00,47.0,-99.9,-100.00,SW,217,1.0,-999.0,-999,-99.99,,,0.00,,2013-02-08 12:02:00,
2013-02-08 07:11:00,47.0,-99.9,-100.00,SW,214,3.0,-999.0,-999,-99.99,,,0.00,,2013-02-08 12:11:00,
2013-02-08 07:22:00,47.0,-99.9,-100.00,SW,228,3.0,-999.0,-999,-99.99,,,0.00,,2013-02-08 12:22:00,
2013-02-08 07:33:00,47.0,-99.9,-100.00,SW,228,3.0,-999.0,-999,-99.99,,,0.00,,2013-02-08 12:33:00,
2013-02-08 07:42:00,47.0,-99.9,-100.00,SW,224,2.0,-999.0,-999,-99.99,,,0.00,,2013-02-08 12:42:00,
2013-02-08 07:53:00,47.0,-99.9,-100.00,SW,234,2.0,-999.0,-999,-99.99,,,0.00,,2013-02-08 12:53:00,
2013-02-08 08:02:00,47.0,-99.9,-100.00,SW,234,2.0,-999.0,-999,-99.99,,,0.00,,2013-02-08 13:02:00,
2013-02-08 08:12:00,47.0,-99.9,-100.00,WSW,247,2.0,-999.0,-999,-99.99,,,0.00,,2013-02-08 13:12:00,
2013-02-08 08:22:00,47.0,-99.9,-100.00,WSW,256,2.0,-999.0,-999,-99.99,,,0.00,,2013-02-08 13:22:00,
2013-02-08 08:33:00,47.0,-99.9,-100.00,West,270,5.0,-999.0,-999,-99.99,,,0.00,,2013-02-08 13:33:00,
2013-02-08 08:43:00,47.0,-99.9,-100.00,West,270,5.0,-999.0,-999,-99.99,,,0.00,,2013-02-08 13:43:00,
2013-02-08 08:52:00,47.0,-99.9,-100.00,SW,230,3.0,-999.0,-999,-99.99,,,0.00,,2013-02-08 13:52:00,
2013-02-08 09:02:00,47.0,-99.9,-100.00,SW,230,3.0,-999.0,-999,-99.99,,,0.00,,2013-02-08 14:02:00,
2013-02-08 09:12:00,47.0,-99.9,-100.00,SSW,208,3.0,-999.0,-999,-99.99,,,0.00,,2013-02-08 14:12:00,
2013-02-08 09:22:00,47.0,-99.9,-100.00,SSW,193,3.0,-999.0,-999,-99.99,,,0.00,,2013-02-08 14:22:00,
2013-02-08 09:30:00,47.0,-99.9,-100.00,South,187,4.0,-999.0,-999,-99.99,,,0.00,,2013-02-08 14:30:00,
2013-02-08 09:33:00,47.0,-99.9,-100.00,SSW,193,3.0,-999.0,-999,-99.99,,,0.00,,2013-02-08 14:33:00,
2013-02-08 09:42:00,47.0,-99.9,-100.00,SSW,196,3.0,-999.0,-999,-99.99,,,0.00,,2013-02-08 14:42:00,
2013-02-08 09:53:00,47.0,-99.9,-100.00,SSW,194,4.0,-999.0,-999,-99.99,,,0.00,,2013-02-08 14:53:00,
2013-02-08 10:02:00,47.0,-99.9,-100.00,SSW,194,4.0,-999.0,-999,-99.99,,,0.00,,2013-02-08 15:02:00,
2013-02-08 10:12:00,47.0,-99.9,-100.00,South,187,4.0,-999.0,-999,-99.99,,,0.00,,2013-02-08 15:12:00,
2013-02-08 10:22:00,47.0,-99.9,-100.00,South,187,4.0,-999.0,-999,-99.99,,,0.00,,2013-02-08 15:22:00,
2013-02-08 10:42:00,48.0,-99.9,-100.00,SSW,208,4.0,-999.0,-999,-99.99,,,0.00,,2013-02-08 15:42:00,
2013-02-08 10:52:00,48.0,-99.9,-100.00,SSW,202,3.0,-999.0,-999,-99.99,,,0.00,,2013-02-08 15:52:00,
2013-02-08 11:00:00,49.0,-99.9,-100.00,NW,307,2.0,-999.0,-999,-99.99,,,0.00,,2013-02-08 16:00:00,
2013-02-08 11:02:00,48.0,-99.9,-100.00,SSW,202,3.0,-999.0,-999,-99.99,,,0.00,,2013-02-08 16:02:00,
2013-02-08 11:12:00,48.0,-99.9,-100.00,WSW,241,2.0,-999.0,-999,-99.99,,,0.00,,2013-02-08 16:12:00,
2013-02-08 11:22:00,48.0,-99.9,-100.00,North,4,3.0,-999.0,-999,-99.99,,,0.00,,2013-02-08 16:22:00,
2013-02-08 11:33:00,48.0,-99.9,-100.00,North,4,3.0,-999.0,-999,-99.99,,,0.00,,2013-02-08 16:33:00,
2013-02-08 11:42:00,49.0,-99.9,-100.00,NW,307,2.0,-999.0,-999,-99.99,,,0.00,,2013-02-08 16:42:00,
2013-02-08 11:52:00,49.0,-99.9,-100.00,NW,307,2.0,-999.0,-999,-99.99,,,0.00,,2013-02-08 16:52:00,
2013-02-08 12:23:00,50.0,-99.9,-100.00,NNW,342,6.0,-999.0,-999,-99.99,,,-99.99,,2013-02-08 17:23:00,
2013-02-08 12:33:00,50.0,-99.9,-100.00,NNW,342,6.0,-999.0,-999,-99.99,,,-99.99,,2013-02-08 17:33:00,
2013-02-08 12:42:00,50.0,-99.9,-100.00,North,357,8.0,-999.0,-999,-99.99,,,0.00,,2013-02-08 17:42:00,
2013-02-08 12:53:00,50.0,-99.9,-100.00,North,9,8.0,-999.0,-999,-99.99,,,0.00,,2013-02-08 17:53:00,
2013-02-08 13:03:00,50.0,-99.9,-100.00,North,9,8.0,-999.0,-999,-99.99,,,0.00,,2013-02-08 18:03:00,
2013-02-08 13:12:00,50.0,-99.9,-100.00,North,9,8.0,-999.0,-999,-99.99,,,0.00,,2013-02-08 18:12:00,
2013-02-08 13:26:00,51.0,-99.9,-100.00,NNW,345,11.0,-999.0,-999,-99.99,,,0.00,,2013-02-08 18:26:00,
2013-02-08 13:36:00,51.0,-99.9,-100.00,NNW,345,11.0,-999.0,-999,-99.99,,,0.00,,2013-02-08 18:36:00,
2013-02-08 13:44:00,51.0,-99.9,-100.00,North,353,9.0,-999.0,-999,-99.99,,,0.00,,2013-02-08 18:44:00,
2013-02-08 13:53:00,52.0,-99.9,-100.00,NNE,15,10.0,-999.0,-999,-99.99,,,0.00,,2013-02-08 18:53:00,
2013-02-08 14:02:00,52.0,-99.9,-100.00,NNE,15,10.0,-999.0,-999,-99.99,,,0.00,,2013-02-08 19:02:00,
2013-02-08 14:12:00,52.0,-99.9,-100.00,NNE,15,10.0,-999.0,-999,-99.99,,,0.00,,2013-02-08 19:12:00,
2013-02-08 14:22:00,52.0,-99.9,-100.00,North,7,11.0,-999.0,-999,-99.99,,,0.00,,2013-02-08 19:22:00,
2013-02-08 14:33:00,52.0,-99.9,-100.00,North,7,11.0,-999.0,-999,-99.99,,,0.00,,2013-02-08 19:33:00,
2013-02-08 14:42:00,52.0,-99.9,-100.00,North,7,11.0,-999.0,-999,-99.99,,,0.00,,2013-02-08 19:42:00,
2013-02-08 14:53:00,51.0,-99.9,-100.00,North,2,11.0,-999.0,-999,-99.99,,,0.00,,2013-02-08 19:53:00,
2013-02-08 15:02:00,51.0,-99.9,-100.00,North,2,11.0,-999.0,-999,-99.99,,,0.00,,2013-02-08 20:02:00,
2013-02-08 15:12:00,51.0,-99.9,-100.00,North,2,11.0,-999.0,-999,-99.99,,,0.00,,2013-02-08 20:12:00,
2013-02-08 15:22:00,51.0,-99.9,-100.00,NNW,347,12.0,-999.0,-999,-99.99,,,-99.99,,2013-02-08 20:22:00,
2013-02-08 15:32:00,51.0,-99.9,-100.00,NNW,347,12.0,-999.0,-999,-99.99,,,-99.99,,2013-02-08 20:32:00,
2013-02-08 15:42:00,51.0,-99.9,-100.00,NNW,347,12.0,-999.0,-999,-99.99,,,-99.99,,2013-02-08 20:42:00,
2013-02-08 15:53:00,50.0,-99.9,-100.00,NNE,17,11.0,-999.0,-999,-99.99,,,0.00,,2013-02-08 20:53:00,
2013-02-08 16:02:00,50.0,-99.9,-100.00,NNE,17,11.0,-999.0,-999,-99.99,,,0.00,,2013-02-08 21:02:00,
2013-02-08 16:12:00,50.0,-99.9,-100.00,NNE,17,11.0,-999.0,-999,-99.99,,,0.00,,2013-02-08 21:12:00,
2013-02-08 16:22:00,48.0,-99.9,-100.00,NNW,339,11.0,-999.0,-999,-99.99,,,0.00,,2013-02-08 21:22:00,
2013-02-08 16:33:00,48.0,-99.9,-100.00,NNW,339,11.0,-999.0,-999,-99.99,,,0.00,,2013-02-08 21:33:00,
2013-02-08 16:42:00,48.0,-99.9,-100.00,NNW,339,11.0,-999.0,-999,-99.99,,,0.00,,2013-02-08 21:42:00,
2013-02-08 16:53:00,46.0,-99.9,-100.00,NNW,339,14.0,-999.0,-999,-99.99,,,0.00,,2013-02-08 21:53:00,
2013-02-08 17:02:00,46.0,-99.9,-100.00,NNW,339,14.0,-999.0,-999,-99.99,,,0.00,,2013-02-08 22:02:00,
2013-02-08 17:12:00,46.0,-99.9,-100.00,NNW,339,14.0,-999.0,-999,-99.99,,,0.00,,2013-02-08 22:12:00,
2013-02-08 17:22:00,45.0,-99.9,-100.00,NNW,337,11.0,-999.0,-999,-99.99,,,-99.99,,2013-02-08 22:22:00,
2013-02-08 17:32:00,45.0,-99.9,-100.00,NNW,337,11.0,-999.0,-999,-99.99,,,-99.99,,2013-02-08 22:32:00,
2013-02-08 17:42:00,45.0,-99.9,-100.00,NNW,337,11.0,-999.0,-999,-99.99,,,-99.99,,2013-02-08 22:42:00,
2013-02-08 17:52:00,45.0,-99.9,-100.00,NNW,337,12.0,-999.0,-999,-99.99,,,-99.99,,2013-02-08 22:52:00,
2013-02-08 18:02:00,45.0,-99.9,-100.00,NNW,337,12.0,-999.0,-999,-99.99,,,-99.99,,2013-02-08 23:02:00,
2013-02-08 18:12:00,45.0,-99.9,-100.00,NNW,337,12.0,-999.0,-999,-99.99,,,-99.99,,2013-02-08 23:12:00,
2013-02-08 18:22:00,44.0,-99.9,-100.00,NNW,332,11.0,-999.0,-999,-99.99,,,-99.99,,2013-02-08 23:22:00,
2013-02-08 18:32:00,44.0,-99.9,-100.00,NNW,332,11.0,-999.0,-999,-99.99,,,-99.99,,2013-02-08 23:32:00,
2013-02-08 18:42:00,43.0,-99.9,-100.00,NNW,331,11.0,-999.0,-999,-99.99,,,0.00,,2013-02-08 23:42:00,
2013-02-08 18:52:00,42.0,-99.9,-100.00,NNW,345,9.0,-999.0,-999,-99.99,,,-99.99,,2013-02-08 23:52:00,
2013-02-08 19:02:00,42.0,-99.9,-100.00,NNW,345,9.0,-999.0,-999,-99.99,,,-99.99,,2013-02-09 00:02:00,
2013-02-08 19:12:00,42.0,-99.9,-100.00,NNW,345,11.0,-999.0,-999,-99.99,,,0.00,,2013-02-09 00:12:00,
2013-02-08 19:22:00,41.0,-99.9,-100.00,NNW,345,9.0,-999.0,-999,-99.99,,,0.00,,2013-02-09 00:22:00,
2013-02-08 19:32:00,41.0,-99.9,-100.00,NNW,347,8.0,-999.0,-999,-99.99,,,0.00,,2013-02-09 00:32:00,
2013-02-08 19:42:00,41.0,-99.9,-100.00,NNW,347,8.0,-999.0,-999,-99.99,,,0.00,,2013-02-09 00:42:00,
2013-02-08 19:52:00,41.0,-99.9,-100.00,North,359,8.0,-999.0,-999,-99.99,,,-99.99,,2013-02-09 00:52:00,
2013-02-08 20:02:00,41.0,-99.9,-100.00,North,359,8.0,-999.0,-999,-99.99,,,-99.99,,2013-02-09 01:02:00,
2013-02-08 20:12:00,41.0,-99.9,-100.00,North,351,7.0,-999.0,-999,-99.99,,,0.00,,2013-02-09 01:12:00,
2013-02-08 20:22:00,41.0,-99.9,-100.00,North,2,9.0,-999.0,-999,-99.99,,,-99.99,,2013-02-09 01:22:00,
2013-02-08 20:32:00,41.0,-99.9,-100.00,North,2,9.0,-999.0,-999,-99.99,,,-99.99,,2013-02-09 01:32:00,
2013-02-08 20:42:00,41.0,-99.9,-100.00,North,0,12.0,-999.0,-999,-99.99,,,0.00,,2013-02-09 01:42:00,
2013-02-08 20:52:00,41.0,-99.9,-100.00,North,356,9.0,-999.0,-999,-99.99,,,-99.99,,2013-02-09 01:52:00,
2013-02-08 21:02:00,41.0,-99.9,-100.00,North,356,9.0,-999.0,-999,-99.99,,,-99.99,,2013-02-09 02:02:00,
2013-02-08 21:11:00,41.0,-99.9,-100.00,NNE,13,9.0,-999.0,-999,-99.99,,,0.00,,2013-02-09 02:11:00,
2013-02-08 21:22:00,40.0,-99.9,-100.00,North,11,10.0,-999.0,-999,-99.99,,,-99.99,,2013-02-09 02:22:00,
2013-02-08 21:32:00,40.0,-99.9,-100.00,North,11,10.0,-999.0,-999,-99.99,,,-99.99,,2013-02-09 02:32:00,
2013-02-08 21:42:00,40.0,-99.9,-100.00,NNE,13,10.0,-999.0,-999,-99.99,,,0.00,,2013-02-09 02:42:00,
2013-02-08 21:53:00,40.0,-99.9,-100.00,North,359,9.0,-999.0,-999,-99.99,,,-99.99,,2013-02-09 02:53:00,
2013-02-08 22:02:00,40.0,-99.9,-100.00,North,359,9.0,-999.0,-999,-99.99,,,-99.99,,2013-02-09 03:02:00,
2013-02-08 22:11:00,39.0,-99.9,-100.00,NNW,344,10.0,-999.0,-999,-99.99,,,0.00,,2013-02-09 03:11:00,
2013-02-08 22:22:00,39.0,-99.9,-100.00,North,349,8.0,-999.0,-999,-99.99,,,-99.99,,2013-02-09 03:22:00,
2013-02-08 22:32:00,39.0,-99.9,-100.00,North,349,8.0,-999.0,-999,-99.99,,,-99.99,,2013-02-09 03:32:00,
2013-02-08 22:42:00,39.0,-99.9,-100.00,North,355,9.0,-999.0,-999,-99.99,,,0.00,,2013-02-09 03:42:00,
2013-02-08 22:53:00,39.0,-99.9,-100.00,North,359,7.0,-999.0,-999,-99.99,,,-99.99,,2013-02-09 03:53:00,
2013-02-08 23:03:00,39.0,-99.9,-100.00,North,359,7.0,-999.0,-999,-99.99,,,-99.99,,2013-02-09 04:03:00,
2013-02-08 23:12:00,39.0,-99.9,-100.00,North,3,9.0,-999.0,-999,-99.99,,,0.00,,2013-02-09 04:12:00,
2013-02-08 23:24:00,39.0,-99.9,-100.00,North,11,9.0,-999.0,-999,-99.99,,,-99.99,,2013-02-09 04:24:00,
2013-02-08 23:32:00,39.0,-99.9,-100.00,North,11,9.0,-999.0,-999,-99.99,,,-99.99,,2013-02-09 04:32:00,
2013-02-08 23:43:00,39.0,-99.9,-100.00,NNE,18,9.0,-999.0,-999,-99.99,,,0.00,,2013-02-09 04:43:00,
2013-02-08 23:53:00,39.0,-99.9,-100.00,NNE,15,11.0,-999.0,-999,-99.99,,,-99.99,,2013-02-09 04:53:00,